Location: Eboldshausen
(51.7766°N, 10.0050°E)
Time: 01:54:01
(UTC+00:00)

Cosmos 1802 Rocket - Pass Details

Date: 15 November 2025
Orbit: 953 x 1011 km, 82.9° (Epoch: 13 December)

Event Time Altitude Azimuth Distance (km) Brightness Sun altitude
Rises 16:33:24 0° 192° (SSW) 3,730 7.5 -9.9°
Reaches altitude 10° 16:35:55 10° 194° (SSW) 2,785 6.8 -10.3°
Maximum altitude 16:42:21 78° 281° (W) 1,037 4.3 -11.2°
Drops below altitude 10° 16:48:49 10° 8° (N) 2,795 6.2 -12.2°
Sets 16:51:22 0° 10° (N) 3,744 6.8 -12.6°
